Date String (YYYY-MM-DD hh:mm:ss) UTC,Instrument flags,Ambient pressure (hPa),Sample flow (lpm),Bypass flow (lpm),Sample temperature (°C),Ambient temperature (°C),ASC tube jacket temperature (°C),LED temperature (°C),Box temperature (°C),Sample RH (%),Span deviation,Mass concentration (μg/m³),Mass concentration (μg/m³),Mass concentration (μg/m³)
DateTimeUTC,F1_M11,P_M11,Q1_M11,Q2_M11,T1_M11,T2_M11,T3_M11,T4_M11,T5_M11,U1_M11,ZSPAN_M11,X0_M11,X2_M11,X1_M11
2021-09-11 16:00:00,,0830.4,5.00,0.00,29.3,26.4,00.0,38.5,30.8,16.3,0001.9,0025.09,0011.81,0010.40
2021-09-11 16:01:00,,0830.3,4.99,0.00,29.3,26.8,00.0,38.5,31.0,15.5,0001.5,0024.12,0011.75,0010.37
2021-09-11 16:02:00,,0830.4,5.01,0.00,29.3,27.2,00.0,38.5,31.0,16.3,0001.3,0023.82,0011.72,0010.37
2021-09-11 16:03:00,,0830.4,4.99,0.00,29.4,27.6,00.0,38.5,31.1,16.5,0001.2,0023.12,0011.73,0010.39
2021-09-11 16:04:00,,0830.3,5.00,0.00,29.4,27.9,00.0,38.5,31.1,16.2,0001.3,0023.06,0011.79,0010.38
2021-09-11 16:05:00,,0830.4,5.00,0.00,29.4,28.2,00.0,38.5,31.2,16.2,0001.6,0021.90,0011.78,0010.39
2021-09-11 16:06:00,,0830.4,5.01,0.00,29.5,28.4,00.0,38.5,31.4,16.1,0001.5,0020.92,0011.75,0010.38
2021-09-11 16:07:00,,0830.4,5.00,0.00,29.5,28.4,00.0,38.5,31.4,16.2,0001.2,0021.40,0011.72,0010.36
2021-09-11 16:08:00,,0830.4,4.99,0.00,29.5,26.9,00.0,38.5,31.0,15.8,0001.1,0020.93,0011.71,0010.34
2021-09-11 16:09:00,,0830.4,5.00,0.00,29.3,26.2,00.0,38.5,30.8,15.6,0000.6,0019.83,0011.75,0010.36
2021-09-11 16:10:00,,0830.4,5.00,0.00,29.3,26.6,00.0,38.5,30.9,15.3,0000.6,0019.52,0011.76,0010.36
2021-09-11 16:11:00,,0830.4,5.00,0.00,29.3,27.0,00.0,38.4,30.9,14.8,0000.7,0019.43,0011.73,0010.37
2021-09-11 16:12:00,,0830.4,5.01,0.00,29.3,27.4,00.0,38.4,31.0,14.3,0000.9,0019.98,0011.73,0010.36
2021-09-11 16:13:00,,0830.4,4.99,0.00,29.3,27.8,00.0,38.4,31.1,13.8,0001.1,0020.15,0011.71,0010.32
2021-09-11 16:14:00,,0830.4,5.00,0.00,29.4,28.1,00.0,38.4,31.2,13.9,0001.4,0021.05,0011.68,0010.27
2021-09-11 16:15:00,,0830.4,4.99,0.00,29.4,27.3,00.0,38.4,31.0,14.1,0001.0,0022.94,0011.58,0010.21
2021-09-11 16:16:00,,0830.4,5.01,0.00,29.2,25.9,00.0,38.4,30.6,14.8,0000.8,0022.89,0011.48,0010.17
2021-09-11 16:17:00,,0830.4,5.00,0.00,29.2,26.1,00.0,38.4,30.6,15.2,0000.7,0023.15,0011.51,0010.14
2021-09-11 16:18:00,,0830.4,5.00,0.00,29.1,26.5,00.0,38.3,30.8,15.2,0000.8,0022.22,0011.49,0010.11
2021-09-11 16:19:00,,0830.5,5.00,0.00,29.1,26.9,00.0,38.3,30.8,15.8,0000.7,0022.77,0011.47,0010.09
2021-09-11 16:20:00,,0830.4,4.99,0.00,29.2,27.3,00.0,38.3,30.9,16.2,0000.9,0023.01,0011.46,0010.07
2021-09-11 16:21:00,,0830.4,5.00,0.00,29.2,27.7,00.0,38.3,31.0,16.3,0000.8,0023.04,0011.43,0010.03
2021-09-11 16:22:00,,0830.4,5.00,0.00,29.3,28.0,00.0,38.3,31.1,16.7,0000.9,0023.95,0011.43,0010.02
2021-09-11 16:23:00,,0830.4,5.01,0.00,29.3,28.2,00.0,38.3,31.2,16.9,0000.7,0024.66,0011.51,0010.04
2021-09-11 16:24:00,,0830.4,5.01,0.00,29.3,27.5,00.0,38.3,31.0,17.7,0000.5,0024.93,0011.59,0010.09
2021-09-11 16:25:00,,0830.4,5.00,0.00,29.2,26.0,00.0,38.3,30.6,19.4,0000.3,0024.97,0011.63,0010.14
2021-09-11 16:26:00,,0830.4,4.99,0.00,29.1,26.0,00.0,38.3,30.5,20.2,0000.2,0022.63,0011.74,0010.20
2021-09-11 16:27:00,,0830.4,5.01,0.00,29.1,26.5,00.0,38.3,30.7,19.8,0000.4,0023.84,0011.89,0010.25
2021-09-11 16:28:00,,0830.3,4.99,0.00,29.1,26.9,00.0,38.2,30.8,19.3,0000.7,0025.81,0011.95,0010.29
2021-09-11 16:29:00,,0830.2,5.01,0.00,29.1,27.3,00.0,38.2,30.9,19.3,0000.7,0026.17,0011.98,0010.31
2021-09-11 16:30:00,,0830.3,4.98,0.00,29.2,27.7,00.0,38.2,31.0,19.6,0000.6,0026.49,0011.99,0010.35
2021-09-11 16:31:00,,0830.2,5.01,0.00,29.2,28.0,00.0,38.2,31.0,19.7,0000.9,0027.51,0011.96,0010.36
2021-09-11 16:32:00,,0830.2,5.00,0.00,29.3,28.2,00.0,38.2,31.1,19.4,0001.0,0027.79,0011.95,0010.38
2021-09-11 16:33:00,,0830.2,5.00,0.00,29.3,28.4,00.0,38.3,31.2,18.2,0001.1,0027.55,0011.96,0010.38
2021-09-11 16:34:00,,0830.2,5.00,0.00,29.4,27.8,00.0,38.3,31.1,18.1,0001.4,0026.92,0011.90,0010.38
2021-09-11 16:35:00,,0830.3,5.00,0.00,29.2,26.2,00.0,38.3,30.7,18.2,0001.3,0027.18,0011.90,0010.37
2021-09-11 16:36:00,,0830.4,5.01,0.00,29.1,26.0,00.0,38.3,30.6,18.5,0001.3,0027.36,0011.94,0010.37
2021-09-11 16:37:00,,0830.4,4.99,0.00,29.1,26.4,00.0,38.3,30.7,18.5,0001.4,0027.18,0011.93,0010.37
2021-09-11 16:38:00,,0830.4,5.01,0.00,29.1,26.8,00.0,38.2,30.8,19.1,0001.4,0027.44,0011.85,0010.35
2021-09-11 16:39:00,,0830.4,5.01,0.00,29.1,27.2,00.0,38.2,30.8,19.5,0001.5,0026.16,0011.83,0010.36
2021-09-11 16:40:00,,0830.4,4.99,0.00,29.2,27.6,00.0,38.2,30.9,19.6,0001.6,0026.59,0011.83,0010.37
2021-09-11 16:41:00,,0830.4,5.00,0.00,29.2,27.9,00.0,38.2,31.0,19.6,0001.7,0026.04,0011.87,0010.36
2021-09-11 16:42:00,,0830.3,4.99,0.00,29.3,28.2,00.0,38.2,31.1,18.4,0001.6,0025.32,0011.87,0010.37
2021-09-11 16:43:00,,0830.3,5.01,0.00,29.3,27.8,00.0,38.2,31.1,18.6,0001.7,0025.29,0011.83,0010.37
2021-09-11 16:44:00,,0830.2,5.00,0.00,29.2,26.2,00.0,38.2,30.7,18.4,0001.6,0026.25,0011.85,0010.38
2021-09-11 16:45:00,,0830.2,5.00,0.00,29.1,26.0,00.0,38.2,30.6,18.5,0001.4,0025.87,0011.88,0010.38
2021-09-11 16:46:00,,0830.2,5.00,0.00,29.1,26.4,00.0,38.2,30.7,18.5,0001.7,0025.35,0011.87,0010.37
2021-09-11 16:47:00,,0830.1,4.99,0.00,29.1,26.9,00.0,38.2,30.7,18.4,0001.9,0025.31,0011.88,0010.38
2021-09-11 16:48:00,,0830.1,5.02,0.00,29.1,27.3,00.0,38.2,30.8,18.6,0001.9,0025.93,0011.85,0010.38
2021-09-11 16:49:00,,0830.2,4.99,0.00,29.1,27.6,00.0,38.2,30.9,18.4,0001.7,0024.62,0011.88,0010.38
2021-09-11 16:50:00,,0830.1,5.00,0.00,29.2,28.0,00.0,38.2,31.0,18.1,0001.6,0023.92,0011.87,0010.37
2021-09-11 16:51:00,,0830.1,4.99,0.00,29.2,27.7,00.0,38.2,31.0,17.9,0001.5,0024.71,0011.88,0010.36
2021-09-11 16:52:00,,0830.1,5.01,0.00,29.1,26.3,00.0,38.2,30.7,17.9,0001.5,0024.82,0011.83,0010.36
2021-09-11 16:53:00,,0830.1,5.00,0.00,29.0,26.0,00.0,38.2,30.5,18.4,0001.7,0025.11,0011.83,0010.35
2021-09-11 16:54:00,,0830.2,5.00,0.00,29.0,26.4,00.0,38.1,30.6,18.9,0001.8,0025.00,0011.88,0010.39
2021-09-11 16:55:00,,0830.3,5.00,0.00,29.0,26.8,00.0,38.1,30.7,18.8,0001.9,0024.06,0011.87,0010.39
2021-09-11 16:56:00,,0830.3,5.00,0.00,29.0,27.2,00.0,38.1,30.8,19.0,0002.1,0023.98,0011.88,0010.41
2021-09-11 16:57:00,,0830.4,5.00,0.00,29.1,27.6,00.0,38.1,30.9,19.8,0002.0,0025.57,0011.92,0010.44
2021-09-11 16:58:00,,0830.4,5.00,0.00,29.1,27.9,00.0,38.1,31.0,19.7,0002.0,0026.80,0011.92,0010.46
2021-09-11 16:59:00,,0830.3,5.00,0.00,29.2,28.2,00.0,38.1,31.1,18.9,0002.0,0026.12,0011.87,0010.45
